パンスターズ彗星

C/2018 F4 ( PanSTARRS )

English version
Home page
Updated on July 2, 2021

---------------------------------------------------------------------

・ プロフィール

発見日 2018年3月17日
発見光度 20.4等
発見者 Pan-STARRS 1 telescope (Haleakala)

・ 写真集

・ 軌道要素

    C/2018 F4 (PANSTARRS)
Epoch 2019 Dec. 23.0 TT = JDT 2458840.5                                         
T 2019 Dec. 4.08457 TT                                  Spoto                   
q   3.4398948            (2000.0)            P               Q                  
z  -0.0004269      Peri.  263.20965     -0.01440811     +0.89947801             
                   Node    26.50799     +0.16994761     +0.43262167             
e   1.0014684      Incl.   78.09860     -0.98534776     +0.06146382             
From 491 observations 2018 Mar. 25-2021 Jan. 4, mean residual 0".7.             
     Nongravitational parameters A1 = +2.07, A2 = -0.8876.                      
                                                                                
    C/2018 F4-B (PANSTARRS)
Epoch 2019 Dec. 23.0 TT = JDT 2458840.5                                         
T 2019 Dec. 4.00295 TT                                  Spoto                   
q   3.4394165            (2000.0)            P               Q                  
z  -0.0004554      Peri.  263.18731     -0.01475703     +0.89946832             
 +/-0.0000032      Node    26.50853     +0.16977959     +0.43269575             
e   1.0015663      Incl.   78.09865     -0.98537157     +0.06108297             
From 110 observations 2020 Sept. 12-2021 Jan. 5, mean residual 0".6.            

・ 星図

・ 光度変化

        m1 = -9.0 + 5 logΔ + 30   log r          [    ,-615]  (              〜2018年 3月29日)
        m1 =  3.0 + 5 logΔ + 15.0 log r          [-615, 150]  (2018年 3月29日〜2020年 5月 2日)
        m1 =  0.5 + 5 logΔ + 20.0 log r(t - 50)  [ 150,    ]  (2020年 5月 2日〜              )

---------------------------------------------------------------------

軌道要素はM.P.E.C. 2021-B143に掲載されたものです。
星図はステラナビゲータ Ver.10 (アストロアーツ) で作成したものです。
光度グラフはComet for Windowsで作成したものです。

---------------------------------------------------------------------

Copyright(C) Seiichi Yoshida (comet@aerith.net). All rights reserved.